VA2EYZ-13 Weather Reports


time (UTC)temp
C
wind
direction
speed
KPH
gust
KPH
rain 1hr
cm
rain 24hr
cm
rain mn
cm
humidity
%
barometer
mb
20260508004121 10 0.0 0.0 0.00 0.00 0.00 20 1008.0
20260508002821 10 0.0 0.0 0.00 0.00 0.00 20 1008.0
20260508000222 10 0.0 0.0 0.00 0.00 0.00 20 1008.0
20260507232748 10 0.0 0.0 0.00 0.00 0.00 20 1007.8
20260507223622 10 0.0 0.0 0.00 0.00 0.00 20 1007.8
20260507220400 10 0.0 0.0 0.00 0.00 0.00 20 1007.9
20260507214103 11 0.0 0.0 0.00 0.00 0.00 18 1007.9
20260507210359 11 0.0 0.0 0.00 0.00 0.00 18 1007.7
20260507204953 11 0.0 0.0 0.00 0.00 0.00 19 1007.7
20260507202717 11 0.0 0.0 0.00 0.00 0.00 19 1007.0
20260507200359 11 0.0 0.0 0.00 0.00 0.00 19 1007.5
20260507195214 11 0.0 0.0 0.00 0.00 0.00 20 1007.5
20260507192714 11 0.0 0.0 0.00 0.00 0.00 20 1007.0
20260507190359 11 0.0 0.0 0.00 0.00 0.00 20 1007.8
20260507185310 10 0.0 0.0 0.00 0.00 0.00 20 1007.8
20260507183004 10 0.0 0.0 0.00 0.00 0.00 20 1007.0
20260507180204 11 0.0 0.0 0.00 0.00 0.00 22 1007.6
20260507170907 11 0.0 0.0 0.00 0.00 0.00 22 1007.0
20260507170359 11 0.0 0.0 0.00 0.00 0.00 22 1007.0
20260507161752 10 0.0 0.0 0.00 0.00 0.00 26 1007.0
20260507161206 10 0.0 0.0 0.00 0.00 0.00 26 1008.0
20260507160358 10 0.0 0.0 0.00 0.00 0.00 26 1008.0
20260507155453 10 0.0 0.0 0.00 0.00 0.00 28 1007.0
20260507153640 10 0.0 0.0 0.00 0.00 0.00 28 1008.0
20260507152129 10 0.0 0.0 0.00 0.00 0.00 28 1008.0
20260507151625 10 0.0 0.0 0.00 0.00 0.00 28 1008.0
20260507150400 10 0.0 0.0 0.00 0.00 0.00 28 1007.0
20260507143102 9 0.0 0.0 0.00 0.00 0.00 30 1007.0
20260507142447 9 0.0 0.0 0.00 0.00 0.00 30 1008.0
20260507140358 9 0.0 0.0 0.00 0.00 0.00 30 1008.2
20260507133211 8 0.0 0.0 0.00 0.00 0.00 31 1008.2
20260507130358 8 0.0 0.0 0.00 0.00 0.00 31 1008.2
20260507123310 8 0.0 0.0 0.00 0.00 0.00 30 1008.2
20260507120358 8 0.0 0.0 0.00 0.00 0.00 30 1008.0
20260507115805 8 0.0 0.0 0.00 0.00 0.00 40 1008.0
20260507113942 8 0.0 0.0 0.00 0.00 0.00 40 1008.0
20260507113358 8 0.0 0.0 0.00 0.00 0.00 40 1007.0
20260507112358 8 0.0 0.0 0.00 0.00 0.00 41 1007.0
20260507110358 8 0.0 0.0 0.00 0.00 0.00 42 1007.0
20260507104653 8 0.0 0.0 0.00 0.00 0.00 42 1007.4
20260507103857 8 0.0 0.0 0.00 0.00 0.00 42 1007.0
20260507101357 8 0.0 0.0 0.00 0.00 0.00 42 1007.0
20260507100356 8 0.0 0.0 0.00 0.00 0.00 42 1007.0
20260507095143 8 0.0 0.0 0.00 0.00 0.00 44 1007.3
20260507092132 8 0.0 0.0 0.00 0.00 0.00 44 1007.0
20260507085857 8 0.0 0.0 0.00 0.00 0.00 44 1007.3
20260507085322 8 0.0 0.0 0.00 0.00 0.00 44 1007.3
20260507082115 8 0.0 0.0 0.00 0.00 0.00 44 1007.0
20260507080356 8 0.0 0.0 0.00 0.00 0.00 44 1007.4
20260507074942 8 0.0 0.0 0.00 0.00 0.00 44 1007.4
20260507073653 8 0.0 0.0 0.00 0.00 0.00 44 1007.0
20260507070356 8 0.0 0.0 0.00 0.00 0.00 44 1007.4
20260507065644 8 0.0 0.0 0.00 0.00 0.00 44 1007.4
20260507063549 8 0.0 0.0 0.00 0.00 0.00 44 1007.0
20260507060356 8 0.0 0.0 0.00 0.00 0.00 44 1007.0
20260507050907 8 0.0 0.0 0.00 0.00 0.00 44 1008.1
20260507044631 8 0.0 0.0 0.00 0.00 0.00 46 1008.0
20260507041026 8 0.0 0.0 0.00 0.00 0.00 46 1008.9
20260507040411 8 0.0 0.0 0.00 0.00 0.00 44 1008.0
20260507031335 8 0.0 0.0 0.00 0.00 0.00 44 1009.1
20260507030559 8 0.0 0.0 0.00 0.00 0.00 44 1009.4
20260507022038 8 0.0 0.0 0.00 0.00 0.00 42 1009.4
20260507020559 8 0.0 0.0 0.00 0.00 0.00 42 1009.7
20260507012901 9 0.0 0.0 0.00 0.00 0.00 41 1009.7
20260507010559 9 0.0 0.0 0.00 0.00 0.00 41 1009.0